Regional Weather Roundup
Issued by NWS Burlington, VT

Home | Current Version | Previous Version | Text Only | Print | Product List | Glossary On
Versions: 1 2 3 4 5 6 7 8 9 10 11 12 13 14 15 16 17 18 19 20 21 22 23 24 25 26 27 28 29 30 31 32 33 34 35 36 37 38 39 40 41 42 43 44 45 46 47 48 49 50
000
ASUS41 KBTV 010730
RWRBTV
VERMONT REGIONAL WEATHER ROUNDUP
NATIONAL WEATHER SERVICE BURLINGTON VT
300 AM EDT SAT OCT 01 2016

NOTE: "FAIR" INDICATES FEW OR NO CLOUDS BELOW 12,000 FEET WITH NO
SIGNIFICANT WEATHER AND/OR OBSTRUCTIONS TO VISIBILITY.

* THESE REPORTS ARE NOT UNDER NWS QUALITY CONTROL AND/OR DO NOT
  REPORT WEATHER SUCH AS PRECIPITATION AND FOG.

VTZ001>019-010800-
_____VERMONT_____


CITY           SKY/WX    TMP DP  RH WIND       PRES   REMARKS
BURLINGTON     CLOUDY    56  38  50 CALM      30.35F
MONTPELIER     CLOUDY    48  44  86 CALM      30.42F
MORRISVILLE    PTCLDY    49  47  93 CALM      30.39F
ST. JOHNSBURY*   N/A     48  45  89 MISG      30.38F
LYNDONVILLE*   FAIR      46  43  91 CALM      30.40F
MIDDLEBURY*    CLOUDY    55  37  50 S15G21    30.36R
RUTLAND*       RAIN      46  44  93 VRB7      30.38F FOG
SPRINGFIELD    LGT RAIN  46  43  89 CALM      30.41F
HIGHGATE*      LGT RAIN  52  49  89 CALM      30.35S
NEWPORT*       FAIR      46  45  97 CALM      30.39S
BENNINGTON     CLOUDY    52  44  74 N6        30.32F
ISLAND POND*     N/A     43 N/A N/A CALM        N/A
GALLUP MILLS*    N/A     45 N/A N/A MISG        N/A
UNION VILLAGE*   N/A     50 N/A N/A MISG        N/A
MT. MANSFIELD*   N/A     43 N/A N/A E30         N/A

_____LAKE CHAMPLAIN_____


CITY           SKY/WX    TMP DP  RH WIND       PRES   REMARKS
BURTON ISLAND*   N/A     57  48  72 E10         N/A
COLCHESTER RF*   N/A     59  48  67 S8          N/A
DIAMOND ISL*     N/A     59  41  51 S6          N/A

$$

NYZ007-026>031-035-052-083-087-010800-
_____NORTHERN NEW YORK_____


CITY           SKY/WX    TMP DP  RH WIND       PRES   REMARKS
PLATTSBURGH    LGT RAIN  52  50  93 CALM      30.35F
SARANAC LAKE   CLOUDY    50  43  77 CALM      30.30F
MASSENA        CLOUDY    55  48  77 NE3       30.31F
OGDENSBURG*      N/A     54  52  94 CALM      30.30F
POTSDAM*       LGT RAIN  52  52 100 CALM      30.30F
STARK FALLS*     N/A     63 N/A N/A E7          N/A
WATERTOWN      CLOUDY    54  48  80 E8        30.29F
FT DRUM        DRIZZLE   52  50  93 SE8       30.28F
ALBANY         CLOUDY    50  46  86 N9        30.34F
GLENS FALLS    LGT RAIN  49  46  90 N8        30.36F FOG

$$
NHZ002-005-011-010800-
_____NEW HAMPSHIRE_____


CITY           SKY/WX    TMP DP  RH WIND       PRES   REMARKS
LEBANON        CLOUDY    52  45  77 VRB3      30.39F
KEENE          LGT RAIN  46  45  96 N8        30.37F
MT WASHINGTON  CLOUDY    46  -8  10 SE25        N/A
PLYMOUTH       CLOUDY    48  46  90 CALM      30.39F
WHITEFIELD     CLOUDY    47  41  80 CALM      30.39F

$$

_____REGIONAL QUEBEC LOCATIONS_____


CITY           SKY/WX    TMP DP  RH WIND       PRES   REMARKS
MONTREAL       MOCLDY    54  48  82 N8        30.34F
QUEBEC CITY    CLOUDY    50  45  81 N2        30.41F
SHERBROOKE     CLOUDY    48  45  87 SE5       30.37F

_____REGIONAL ONTARIO LOCATIONS_____


CITY           SKY/WX    TMP DP  RH WIND       PRES   REMARKS
OTTAWA         MOCLDY    54  45  71 E7        30.32F

______KEY______
VSB  - VISIBILITY IN MILES
WCI  - WIND CHILL INDEX
HX   - HEAT INDEX
$$
NNNN



USA.gov is the U.S. government's official web portal to all federal, state and local government web resources and services.